Location: Carnières
(50.1682°N, 3.3474°E)
Time: 21:49:20
(UTC+00:00)

SL-16 R/B - Pass Details

Date: 05 August 2024
Orbit: 842 x 845 km, 71.0° (Epoch: 10 September)

Event Time Altitude Azimuth Distance (km) Brightness Sun altitude
Exits shadow 00:26:13 32° 133° (SE) 1,427 3.1 -22.5°
Maximum altitude 00:27:28 35° 107° (ESE) 1,335 3.1 -22.5°
Drops below altitude 10° 00:32:33 10° 43° (NE) 2,474 5.4 -22.4°
Sets 00:35:10 0° 35° (NE) 3,414 6.5 -22.3°
